星链-35779(STARLINK-35779)

导读 | 豆包AI

STARLINK-35779是由美国发射的星链卫星,于2025年12月11日升空,隶属于SpaceX打造的星链卫星互联网星座。星链项目旨在为全球提供覆盖偏远地区的高速宽带服务,该卫星的入轨进一步扩充了星座规模,助力星链持续提升全球网络覆盖密度与服务稳定性,推动全球卫星互联网基础设施建设。

基本信息
目录编号:
67047
目录名称:
STARLINK-35779
国际标识:
2025-294T
轨道中心:
EARTH
卫星名称:
星链-35779
卫星全名:
星链-35779(STARLINK-35779)
卫星状态:
在轨 (已飞行93 天)
发射日期:
2025-12-11 UTC
国别 :
美国 (US)
星等 :
--
轨道信息
数据来源 国际轨道数据
星历时间: 2026-03-13T13:50:32+0800
21小时前
查看轨道信息
半长轴: 6861.099km
偏心率: 0.0000239
轨道倾角: 43.004°
近地点辐角 340.449°
升交点赤经 17.927°
平近点角 19.636°
近地点: 482.798km
远地点: 483.126km
周期: 94.265分钟
每日圈数: 15.276094
详细信息
固有亮度:
5
最大亮度:
2.5
卫星平台:
Starlink V1.0
覆盖范围:
全球
运营商:
太空探索技术公司
运营商所在国:
美国
制造商(研发单位):
太空探索技术公司
制造商所在国:
美国
使用方式:
暂无
卫星简介
Starlink 计划是 SpaceX 推出的全球卫星互联网项目,通过发射低轨道卫星,为全球尤其是偏远地区提供高速、低延迟的互联网服务。自 2019 年起,Starlink 已部署数千颗卫星,旨在缩小全球数字鸿沟,推动互联网普及。该项目还为军事、航空等行业提供通信支持,带来广泛经济效益。
2D轨道图
3D轨道图
轨道高度分析图
轨道倾角分析图
轨道综合分析图
查看轨道综合分析图